User: anonymous   Login
Location: Campillo
(40.8621°N, 4.2488°W)
Time: 03:16:50
(UTC+00:00)
Language:

Cosmos 158 Rocket - Orbit

View from above orbital plane
View from above orbital plane
View from above satellite
View from above satellite

Ground track
Ground track

The orbit data is extracted from the following two-line orbital elements,

1 02802U 67045B   21207.54471907  .00000054  00000-0  23697-4 0  9993
2 02802  74.0112 253.3181 0067631 306.3657  53.1271 14.43817234845457
Epoch (UTC): 26 July 2021 13:04:23
Eccentricity: 0.0067631
inclination: 74.0112°
perigee height: 698 km
apogee height: 794 km
right ascension of ascending node: 253.3181°
argument of perigee: 306.3657°
revolutions per day: 14.43817234
mean anomaly at epoch: 53.1271°
orbit number at epoch: 84545

The dashed part of the orbit path shows where the satellite is in the earth's shadow,  

DLR